Location: Nelson
(41.2830°S, 173.2830°E)
Time: 05:39:48
(UTC+12:00)

CZ-4B R/B - Pass Details

Date: 14 May 2021
Orbit: 385 x 454 km, 97.6° (Epoch: 17 June)

Event Time Altitude Azimuth Distance (km) Brightness Sun altitude
Rises 18:25:11 0° 360° (N) 2,270 5.2 -12.6°
Reaches altitude 10° 18:27:12 10° 352° (N) 1,425 4.2 -12.9°
Maximum altitude 18:30:05 41° 280° (W) 591 2.6 -13.5°
Drops below altitude 10° 18:33:03 10° 207° (SSW) 1,462 4.2 -14.0°
Sets 18:35:08 0° 199° (SSW) 2,338 5.1 -14.4°
